This is the latest recevied weather packets stored in our database for station/object N5JXS. If no packets are shown the sender has not sent any weather packets the latest 10 day(s).
| Time | Temp. | Humidity | Pressure | Rain* | Wind** | Luminosity | Snow |
|---|---|---|---|---|---|---|---|
| 1777685011 | 7.78° C | 35% | 1023.6 hPa | 0 mm | - | 11 W/m² | - |
| 1777684707 | 7.78° C | 34% | 1023.4 hPa | 0 mm | - | 12 W/m² | - |
| 1777684403 | 8.33° C | 34% | 1023.5 hPa | 0 mm | - | 16 W/m² | - |
| 1777684101 | 8.33° C | 33% | 1023.5 hPa | 0 mm | - | 17 W/m² | - |
| 1777683797 | 8.33° C | 36% | 1023.4 hPa | 0 mm | - | 19 W/m² | - |
| 1777683494 | 8.33° C | 37% | 1023.5 hPa | 0 mm | - | 21 W/m² | - |
| 1777683192 | 8.33° C | 35% | 1023.5 hPa | 0 mm | - | 23 W/m² | - |
| 1777682889 | 8.89° C | 35% | 1023.2 hPa | 0 mm | - | 24 W/m² | - |
| 1777682585 | 8.89° C | 34% | 1023.4 hPa | 0 mm | - | 26 W/m² | - |
| 1777682283 | 8.89° C | 34% | 1023.2 hPa | 0 mm | - | 29 W/m² | - |
| 1777681980 | 8.89° C | 35% | 1023.4 hPa | 0 mm | - | 33 W/m² | - |
| 1777681675 | 9.44° C | 35% | 1023 hPa | 0 mm | - | 31 W/m² | - |
| 1777681373 | 9.44° C | 36% | 1023.1 hPa | 0 mm | - | 33 W/m² | - |
| 1777681070 | 9.44° C | 35% | 1023.2 hPa | 0 mm | - | 33 W/m² | - |
| 1777680769 | 9.44° C | 37% | 1022.9 hPa | 0 mm | - | 39 W/m² | - |
| 1777680466 | 9.44° C | 37% | 1023.1 hPa | 0 mm | - | 55 W/m² | - |
| 1777680164 | 9.44° C | 36% | 1023.2 hPa | 0 mm | - | 66 W/m² | - |
| 1777679858 | 8.89° C | 35% | 1023.2 hPa | 0 mm | - | 84 W/m² | - |
| 1777679555 | 10° C | 33% | 1023 hPa | 0 mm | - | 35 W/m² | - |
| 1777679251 | 10.56° C | 34% | 1022.7 hPa | 0 mm | - | 88 W/m² | - |
| 1777678948 | 10.56° C | 35% | 1022.9 hPa | 0 mm | - | 241 W/m² | - |
| 1777678646 | 10° C | 35% | 1023.2 hPa | 0 mm | - | 258 W/m² | - |
| 1777678344 | 10° C | 37% | 1023 hPa | 0 mm | - | 270 W/m² | - |
| 1777678039 | 9.44° C | 38% | 1023.1 hPa | 0 mm | - | 109 W/m² | - |
| 1777677737 | 8.89° C | 41% | 1022.9 hPa | 0 mm | - | 95 W/m² | - |
* Rain latest hour (hover to see other rain measurements)
** Current wind speed in m/s (hover to see current wind gust speed)